EN

Hourly Weather Paratao

Today, 27 February, Saturday

Time Temperature Precipitation Wind Pressure Humidity
00:00 +27°C° 0 mm 1 mps 725 mmHg 21%
01:00 +26°C° 0 mm 1 mps 725 mmHg 24%
02:00 +26°C° 0 mm 1 mps 724 mmHg 26%
03:00 +25°C° 0 mm 1 mps 724 mmHg 28%
04:00 +25°C° 0 mm 1 mps 725 mmHg 36%
05:00 +22°C° 0 mm 0 mps 725 mmHg 44%
06:00 +21°C° 0 mm 0 mps 725 mmHg 52%
07:00 +25°C° 0 mm 0 mps 726 mmHg 49%
08:00 +28°C° 0 mm 0 mps 726 mmHg 47%
09:00 +31°C° 0 mm 0 mps 727 mmHg 45%
10:00 +33°C° 0 mm 0 mps 727 mmHg 38%
11:00 +39°C° 0 mm 1 mps 726 mmHg 31%
12:00 +41°C° 0 mm 1 mps 726 mmHg 24%
13:00 +41°C° 0 mm 1 mps 725 mmHg 24%
14:00 +40°C° 0 mm 1 mps 724 mmHg 24%
15:00 +40°C° 0 mm 2 mps 723 mmHg 24%
16:00 +37°C° 0 mm 1 mps 723 mmHg 27%
17:00 +36°C° 0 mm 1 mps 723 mmHg 30%
18:00 +34°C° 0 mm 1 mps 723 mmHg 33%
19:00 +33°C° 0 mm 1 mps 723 mmHg 36%
20:00 +32°C° 0 mm 1 mps 724 mmHg 39%
21:00 +31°C° 0 mm 1 mps 724 mmHg 42%
22:00 +30°C° 0 mm 1 mps 724 mmHg 46%
23:00 +29°C° 0 mm 1 mps 724 mmHg 50%

Tomorrow, 28 February, Sunday

Time Temperature Precipitation Wind Pressure Humidity
00:00 +28°C° 0 mm 1 mps 724 mmHg 54%
01:00 +27°C° 0 mm 1 mps 724 mmHg 60%
02:00 +27°C° 0 mm 1 mps 724 mmHg 65%
03:00 +26°C° 0 mm 1 mps 723 mmHg 70%
04:00 +25°C° 0 mm 1 mps 724 mmHg 73%
05:00 +25°C° 0 mm 1 mps 724 mmHg 76%
06:00 +24°C° 0 mm 1 mps 724 mmHg 79%
07:00 +27°C° 0 mm 1 mps 725 mmHg 71%
08:00 +29°C° 0 mm 1 mps 726 mmHg 63%
09:00 +32°C° 0 mm 2 mps 726 mmHg 54%
10:00 +35°C° 0 mm 1 mps 726 mmHg 43%
11:00 +39°C° 0 mm 1 mps 725 mmHg 32%
12:00 +42°C° 0 mm 1 mps 725 mmHg 21%
13:00 +42°C° 0 mm 1 mps 724 mmHg 19%
14:00 +42°C° 0 mm 1 mps 723 mmHg 18%
15:00 +42°C° 0 mm 1 mps 723 mmHg 17%
16:00 +40°C° 0 mm 1 mps 722 mmHg 20%
17:00 +38°C° 0 mm 2 mps 722 mmHg 23%
18:00 +36°C° 0 mm 2 mps 722 mmHg 26%
19:00 +35°C° 0 mm 2 mps 723 mmHg 30%
20:00 +32°C° 0 mm 1 mps 723 mmHg 35%
21:00 +31°C° 0 mm 1 mps 724 mmHg 39%
22:00 +30°C° 0 mm 1 mps 724 mmHg 44%
23:00 +29°C° 0 mm 1 mps 724 mmHg 48%

Day after tomorrow, 1 March, Monday

Time Temperature Precipitation Wind Pressure Humidity
00:00 +29°C° 0 mm 1 mps 724 mmHg 53%
01:00 +28°C° 0 mm 1 mps 724 mmHg 60%
02:00 +27°C° 0 mm 1 mps 723 mmHg 67%
03:00 +26°C° 0 mm 1 mps 723 mmHg 74%
04:00 +25°C° 0 mm 1 mps 723 mmHg 77%
05:00 +25°C° 0 mm 1 mps 723 mmHg 81%
06:00 +25°C° 0 mm 1 mps 724 mmHg 84%
07:00 +27°C° 0 mm 1 mps 724 mmHg 74%
08:00 +30°C° 0 mm 1 mps 725 mmHg 63%
09:00 +33°C° 0 mm 1 mps 726 mmHg 53%
10:00 +36°C° 0 mm 1 mps 726 mmHg 44%
11:00 +40°C° 0 mm 1 mps 725 mmHg 35%
12:00 +43°C° 0 mm 1 mps 725 mmHg 26%
13:00 +42°C° 0 mm 1 mps 724 mmHg 26%
14:00 +40°C° 0 mm 1 mps 723 mmHg 25%
15:00 +39°C° 0 mm 1 mps 722 mmHg 25%
16:00 +37°C° 0 mm 1 mps 722 mmHg 27%
17:00 +36°C° 0 mm 1 mps 722 mmHg 28%
18:00 +33°C° 0 mm 0 mps 722 mmHg 29%
19:00 +34°C° 0 mm 1 mps 723 mmHg 32%
20:00 +33°C° 0 mm 1 mps 724 mmHg 35%
21:00 +32°C° 0 mm 1 mps 724 mmHg 38%
22:00 +30°C° 0 mm 2 mps 724 mmHg 45%
23:00 +29°C° 0 mm 2 mps 724 mmHg 52%

2 March, Tuesday

Time Temperature Precipitation Wind Pressure Humidity
00:00 +28°C° 0 mm 2 mps 724 mmHg 59%
01:00 +27°C° 0 mm 2 mps 723 mmHg 67%
02:00 +26°C° 0 mm 1 mps 723 mmHg 75%
03:00 +25°C° 0 mm 1 mps 723 mmHg 83%
04:00 +25°C° 0 mm 1 mps 723 mmHg 85%
05:00 +25°C° 0 mm 1 mps 724 mmHg 87%
06:00 +24°C° 0 mm 1 mps 724 mmHg 90%
07:00 +27°C° 0 mm 1 mps 725 mmHg 77%
08:00 +29°C° 0 mm 0 mps 726 mmHg 64%
09:00 +32°C° 0 mm 0 mps 727 mmHg 51%
10:00 +36°C° 0 mm 1 mps 726 mmHg 41%
11:00 +39°C° 0 mm 2 mps 726 mmHg 32%
12:00 +41°C° 0 mm 2 mps 725 mmHg 22%
13:00 +43°C° 0 mm 3 mps 724 mmHg 21%
14:00 +43°C° 0 mm 3 mps 724 mmHg 19%
15:00 +44°C° 0 mm 3 mps 723 mmHg 17%
16:00 +42°C° 0 mm 3 mps 723 mmHg 19%
17:00 +39°C° 0 mm 2 mps 723 mmHg 22%
18:00 +37°C° 0 mm 2 mps 723 mmHg 25%
19:00 +36°C° 0 mm 2 mps 723 mmHg 28%
20:00 +35°C° 0 mm 2 mps 724 mmHg 31%
21:00 +32°C° 0 mm 2 mps 724 mmHg 35%
22:00 +31°C° 0 mm 1 mps 724 mmHg 46%
23:00 +29°C° 0 mm 1 mps 724 mmHg 57%

3 March, Wednesday

Time Temperature Precipitation Wind Pressure Humidity
00:00 +28°C° 0 mm 1 mps 724 mmHg 69%
01:00 +27°C° 0 mm 1 mps 724 mmHg 74%
02:00 +26°C° 0 mm 1 mps 724 mmHg 80%
03:00 +26°C° 0 mm 1 mps 723 mmHg 85%
04:00 +25°C° 0 mm 1 mps 724 mmHg 87%
05:00 +25°C° 0 mm 1 mps 724 mmHg 89%
06:00 +22°C° 0 mm 0 mps 724 mmHg 91%
07:00 +27°C° 0 mm 1 mps 725 mmHg 79%
08:00 +30°C° 0 mm 1 mps 726 mmHg 67%
09:00 +33°C° 0 mm 1 mps 727 mmHg 55%
10:00 +35°C° 0 mm 1 mps 726 mmHg 45%
11:00 +39°C° 0 mm 2 mps 726 mmHg 34%
12:00 +42°C° 0 mm 2 mps 726 mmHg 24%
13:00 +42°C° 0 mm 2 mps 725 mmHg 22%
14:00 +42°C° 0 mm 2 mps 724 mmHg 20%
15:00 +42°C° 0 mm 2 mps 723 mmHg 18%
16:00 +41°C° 0 mm 2 mps 723 mmHg 20%
17:00 +39°C° 0 mm 2 mps 723 mmHg 23%
18:00 +36°C° 0 mm 1 mps 723 mmHg 26%
19:00 +35°C° 0 mm 2 mps 723 mmHg 32%
20:00 +34°C° 0 mm 2 mps 723 mmHg 38%
21:00 +31°C° 0 mm 3 mps 723 mmHg 45%
22:00 +30°C° 0 mm 2 mps 724 mmHg 53%
23:00 +29°C° 0 mm 1 mps 724 mmHg 61%

4 March, Thursday

Time Temperature Precipitation Wind Pressure Humidity
00:00 +28°C° 0 mm 1 mps 724 mmHg 69%
01:00 +27°C° 0 mm 1 mps 724 mmHg 72%
02:00 +26°C° 0 mm 1 mps 723 mmHg 75%
03:00 +26°C° 0 mm 1 mps 723 mmHg 79%
04:00 +25°C° 0 mm 1 mps 723 mmHg 81%
05:00 +25°C° 0 mm 1 mps 724 mmHg 84%
06:00 +24°C° 0 mm 1 mps 724 mmHg 87%
07:00 +27°C° 0 mm 1 mps 725 mmHg 77%
08:00 +29°C° 0 mm 1 mps 726 mmHg 68%
09:00 +32°C° 0 mm 2 mps 726 mmHg 58%
10:00 +36°C° 0 mm 1 mps 726 mmHg 46%
11:00 +41°C° 0 mm 1 mps 726 mmHg 35%
12:00 +41°C° 0 mm 0 mps 725 mmHg 23%
13:00 +41°C° 0 mm 0 mps 724 mmHg 22%
14:00 +40°C° 0 mm 0 mps 723 mmHg 20%
15:00 +40°C° 0 mm 0 mps 722 mmHg 18%
16:00 +41°C° 0 mm 1 mps 722 mmHg 21%
17:00 +39°C° 0 mm 1 mps 722 mmHg 24%
18:00 +35°C° 0 mm 1 mps 722 mmHg 27%
19:00 +34°C° 0 mm 1 mps 722 mmHg 29%
20:00 +33°C° 0 mm 1 mps 723 mmHg 32%
21:00 +30°C° 0 mm 0 mps 723 mmHg 34%
22:00 +31°C° 0 mm 1 mps 723 mmHg 38%
23:00 +30°C° 0 mm 1 mps 723 mmHg 43%
Show more

We Need Your Consent

Meteoprog and our Service Providers may store and access personal data such as cookies, device identifiers or other similar technologies on your device and process such data to personalise content and ads, as well as provide social media features and to analyse the traffic.

  • Store and/or access information on your device

    Cookies, device identifiers or other information can be stored or accessed on your device for the purposes indicated above.

  • Personalised ads and content, ad and content measurement, audience insights, and products development

    Ads and content can be personalised based on a profile. More data can be added to better personalise ads and content. Ad and content performance can be measured. Insights about the audience who saw the ads and content can be derived. Such data can be used to develop or improve user’s experience, systems and software.

By clicking ‘I Agree’ you will allow the use of indicated cookies, device identifiers, web beacons or other similar technologies. Your settings can be changed in the browser on your device.

For certain purposes, legitimate interests may be relied on, rather than consent. You can read more about this in our Privacy and Cookie Policy.